Terminal Aerodrome Forecast
Issued by NWS

Home | Current Version | Previous Version | Text Only | Print | Product List | Glossary On
Versions: 1 2 3 4 5 6 7 8 9 10 11
000
FTUS46 KEKA 271739
TAFUKI
TAF
KUKI 271739Z 2718/2818 00000KT P6SM FEW200
     FM272200 30005KT P6SM BKN200
     FM280300 00000KT P6SM FEW050 OVC200
     FM280900 00000KT P6SM FEW025 OVC100=

USA.gov is the U.S. government's official web portal to all federal, state and local government web resources and services.